Temperature
21 22 22 22 23 23 22 22 22 21 21 20 20 20 19 19 19 18 18 18 18 17 17 17 17 17 17 18 18 18 18 18 17 17 17 17 17 17 18 18 18 18 18
21 22 22 23 23 23 23 23 22 21 21 20 20 20 19 19 18 18 17 17 17 17 17 17 17 17 17 17 17 17 17 17 17 17 17 16 17 18 18 18 18 18 18
22 22 23 23 23 23 23 22 22 21 21 20 20 19 19 18 18 17 17 17 16 16 16 16 16 17 17 17 17 17 17 17 17 16 16 16 16 17 17 17 17 17 17
22 23 23 23 23 23 22 22 21 21 20 20 19 19 18 17 17 16 16 16 16 16 16 16 16 16 16 16 16 16 16 16 16 16 16 16 16 15 16 16 16 16 16
22 23 23 23 22 22 22 21 21 20 20 19 19 18 17 17 16 16 16 16 16 16 16 15 15 16 16 16 16 16 16 15 15 15 15 15 15 15 15 15 15 16 16
22 22 22 22 22 21 21 21 21 20 20 19 18 18 17 16 16 16 15 15 15 15 15 15 15 15 15 15 15 15 15 15 15 15 15 15 15 15 15 15 15 15 15
22 22 22 22 21 21 21 21 20 20 19 19 18 17 17 16 15 15 15 15 15 15 15 14 14 14 14 14 14 15 15 15 14 14 15 15 15 15 15 14 14 14 14
21 21 22 22 22 21 21 21 20 20 19 19 18 17 17 16 15 15 14 14 14 14 14 14 14 14 14 14 14 14 14 14 14 14 14 14 14 14 14 14 14 14 14
20 20 21 21 21 21 21 20 20 19 19 18 18 17 16 16 15 15 14 14 14 13 13 13 13 13 13 13 13 13 14 14 14 14 14 14 14 14 14 14 14 14 14
18 19 19 20 20 20 20 19 19 18 18 18 17 17 16 15 15 14 14 14 13 13 13 13 13 13 13 13 13 13 13 13 13 13 13 14 14 14 14 14 14 14 14
16 16 17 17 18 18 18 18 18 17 17 17 16 16 16 15 15 14 14 14 13 13 13 13 13 12 12 13 13 13 13 13 13 13 13 13 13 14 14 14 13 13 13
14 15 16 16 16 16 16 16 16 16 16 16 16 16 15 15 15 14 14 13 13 13 12 12 12 12 12 12 12 12 12 12 12 13 13 13 13 13 13 13 13 13 13
13 14 14 15 15 15 15 15 15 15 15 15 15 15 15 15 14 14 13 13 13 12 12 12 12 11 12 12 12 12 12 12 12 12 12 12 12 13 13 13 13 13 13
12 12 13 13 13 13 13 13 14 14 14 14 14 15 15 15 14 14 13 13 12 12 12 12 11 11 11 11 11 11 11 12 12 12 12 12 12 12 12 12 12 12 12
11 11 11 11 11 12 12 12 12 12 12 13 13 14 14 14 14 13 13 13 12 12 12 11 11 11 11 11 11 11 11 11 11 11 11 11 11 11 12 12 12 12 12
10 10 10 10 10 11 11 11 11 11 11 11 12 12 13 13 13 13 13 12 12 12 12 11 11 11 11 11 11 11 11 11 11 11 11 11 11 11 11 11 11 12 12
9 10 10 10 10 10 10 10 10 10 10 10 11 11 11 12 12 12 12 12 12 12 12 11 11 11 11 11 10 10 11 11 11 11 11 11 10 11 11 11 11 11 11
9 10 10 10 10 10 10 10 10 10 10 10 10 10 10 11 11 11 11 11 11 11 11 11 11 11 11 10 10 10 10 10 10 10 11 11 11 11 11 11 11 11 10
9 9 10 10 10 10 10 10 10 10 9 9 9 9 9 10 10 10 11 11 11 11 11 11 11 11 11 10 10 10 10 10 10 10 10 10 11 10 11 11 11 10 10
9 9 10 10 10 10 10 10 10 9 9 9 9 9 9 9 9 9 10 10 10 11 11 11 11 11 11 10 10 10 10 10 10 10 10 10 10 10 10 10 10 10 10
9 9 9 9 9 10 9 9 9 9 9 9 9 9 9 8 8 9 9 9 10 10 10 11 11 11 11 10 10 10 10 10 10 10 10 10 10 10 10 10 10 10 10
9 9 8 9 9 9 9 9 9 9 9 9 9 9 8 8 8 8 8 8 9 10 10 10 10 10 10 10 10 10 10 10 10 10 10 10 10 10 10 10 10 10 9
8 8 8 8 8 8 8 8 8 8 8 8 8 8 8 8 8 8 8 8 8 9 9 10 10 10 10 10 10 10 10 10 10 10 10 9 9 9 9 9 9 9 9
8 8 7 7 7 7 7 7 7 7 7 7 8 8 8 8 8 7 7 7 7 8 9 9 10 10 10 10 10 10 10 10 10 10 9 9 9 9 9 9 8 8 8
7 7 7 7 7 7 7 7 7 7 6 7 7 7 7 7 7 7 7 7 7 8 9 10 10 10 10 10 10 10 10 10 10 10 9 9 9 9 9 8 8 8 8
7 7 7 6 6 6 6 6 6 6 6 6 6 6 6 7 7 7 7 7 7 8 8 9 10 11 11 11 11 10 10 10 10 10 9 9 9 9 9 8 8 8 8
Wind_Speed
4 5 7 8 8 7 8 8 8 6 4 3 3 3 3 3 3 3 4 5 5 6 5 6 7 7 8 9 10 8 9 8 6 5 6 7 9 10 9 9 9 10 10
5 4 6 6 7 7 7 6 6 5 5 3 2 1 1 2 2 3 4 5 5 5 5 5 6 6 6 8 9 7 5 6 7 6 4 4 4 5 7 6 7 8 6
8 6 5 5 5 6 7 6 6 5 4 2 1 1 2 2 3 3 4 5 6 7 6 7 6 6 6 7 8 8 9 8 7 7 6 5 6 3 3 4 5 5 5
6 6 6 6 7 6 5 4 4 3 2 2 2 2 1 2 3 3 4 6 6 7 7 7 7 7 6 7 8 8 8 9 8 6 8 7 4 4 3 2 3 4 5
8 8 8 8 6 4 4 4 3 3 2 2 3 2 2 3 3 4 6 6 6 7 8 8 7 7 7 8 8 7 8 8 8 6 5 6 6 6 5 4 3 2 3
8 8 7 5 4 3 4 4 4 4 3 3 3 3 3 3 4 5 6 6 6 6 8 8 8 8 7 8 8 8 9 9 9 8 7 5 4 5 6 7 4 3 2
7 7 7 6 5 6 6 6 5 4 4 3 3 3 4 3 4 5 5 6 6 6 8 9 9 9 9 9 9 9 9 9 10 10 8 8 6 4 5 5 4 3 2
5 6 6 5 5 6 6 5 5 5 4 4 4 3 3 2 3 4 4 5 5 7 8 10 10 10 10 9 9 8 9 8 9 10 9 7 7 6 5 5 4 3 2
7 6 5 4 3 3 2 2 3 4 4 4 4 4 4 3 4 4 4 4 5 7 8 9 10 10 10 9 8 7 8 7 8 8 8 7 6 6 6 5 4 5 4
11 10 9 9 8 7 6 5 4 4 4 5 5 4 5 4 4 3 4 5 6 6 8 9 10 10 9 9 8 7 7 7 6 6 7 7 6 6 5 5 4 4 4
12 11 11 10 10 10 10 8 7 7 7 6 6 6 6 5 4 4 4 4 5 6 7 8 9 9 9 8 6 6 6 6 5 5 7 7 6 5 5 4 4 3 4
11 12 12 12 13 12 11 10 9 9 8 8 7 8 7 6 5 5 5 4 5 5 6 7 8 8 8 8 6 4 2 2 3 3 5 5 5 5 5 4 5 4 5
12 12 13 13 12 12 11 10 10 10 10 9 8 8 8 8 7 6 5 4 4 4 5 6 7 7 7 7 6 5 5 4 4 3 5 6 7 7 6 7 7 7 7
10 11 11 10 10 10 10 10 11 10 11 10 9 9 10 9 8 7 6 5 4 3 3 4 5 6 6 6 6 6 7 7 8 7 7 6 7 8 9 9 9 9 10
12 12 11 10 10 10 10 10 11 11 11 11 11 10 10 8 8 7 7 6 4 3 2 2 4 4 4 4 5 5 7 8 8 9 8 8 10 11 9 9 9 10 10
13 13 12 12 12 12 12 12 12 11 11 11 11 11 9 7 8 9 8 7 6 4 2 1 1 2 2 4 6 5 6 7 8 9 9 10 12 16 16 15 13 11 11
14 14 14 12 12 12 11 11 11 11 10 10 10 10 9 8 8 8 8 9 8 5 4 3 2 1 1 3 5 6 6 6 6 7 8 9 10 12 13 16 17 15 13
14 15 14 14 13 12 12 11 11 11 10 10 10 10 10 10 8 7 9 10 7 7 6 5 5 3 3 5 6 7 7 7 7 7 8 9 8 9 12 12 12 10 9
14 14 14 14 13 15 14 12 12 11 11 11 10 10 9 10 9 9 9 10 9 9 8 6 7 6 5 8 10 9 6 7 7 6 6 8 9 11 14 13 12 10 8
14 14 13 13 13 15 12 11 13 12 13 12 11 10 9 9 10 10 10 9 10 11 10 9 8 8 8 10 12 11 7 7 6 5 6 8 9 11 12 11 11 10 7
17 16 14 13 13 14 11 12 13 14 15 13 11 11 10 9 10 9 8 8 10 12 11 11 9 9 9 12 14 13 8 8 8 6 5 5 10 11 11 10 9 11 9
16 15 14 15 14 13 12 13 14 15 13 12 12 12 11 10 10 8 9 8 9 13 13 12 10 7 8 11 13 15 12 11 9 7 5 6 11 13 12 10 12 14 11
16 14 14 15 14 12 11 13 15 14 13 12 13 13 12 10 9 8 9 8 8 10 13 13 12 10 8 9 14 14 14 13 7 7 10 11 14 13 11 13 13 10 8
16 15 15 15 15 14 13 13 14 13 12 13 13 12 11 11 9 7 7 7 7 8 12 14 14 12 10 9 9 9 9 10 10 9 11 12 13 10 10 9 7 6 7
15 14 15 16 18 16 15 15 14 12 12 12 12 11 11 10 10 9 7 8 8 9 12 14 15 16 14 14 17 14 11 11 11 11 7 6 6 6 6 5 6 6 6
16 16 17 17 18 17 16 15 14 13 12 12 11 10 9 9 9 9 10 11 11 14 16 17 17 17 18 20 20 19 19 19 19 12 9 8 8 8 8 7 5 4 5
Wind_Direction
103 108 118 128 134 147 157 168 179 190 177 185 214 235 251 259 268 272 282 291 288 284 269 261 253 244 239 236 226 221 224 226 219 235 258 256 247 247 248 251 255 257 261
117 132 146 153 156 162 169 172 183 185 188 191 200 218 258 283 281 301 314 317 317 309 294 274 267 258 251 246 234 226 226 230 206 211 228 261 268 248 246 246 248 252 257
160 174 178 180 171 178 182 182 187 190 199 196 105 29 10 345 331 323 317 316 317 312 300 290 280 269 256 253 247 233 227 233 223 208 206 219 236 254 265 248 245 246 252
191 195 198 203 204 205 195 190 188 192 202 175 168 187 234 273 274 292 298 307 308 308 304 296 286 278 270 265 260 244 234 233 235 223 220 222 199 207 252 263 250 250 257
211 213 215 216 219 215 202 200 189 202 206 193 192 205 244 256 285 299 303 307 308 307 307 301 293 284 276 270 264 255 239 232 232 221 208 218 220 220 223 248 258 269 266
227 233 238 233 226 212 199 193 193 213 219 211 205 210 239 266 293 305 308 311 309 308 310 310 301 290 281 273 265 256 244 236 233 226 210 197 195 202 210 226 234 248 265
243 249 252 240 227 212 203 196 196 219 226 219 223 226 231 244 267 290 301 309 313 313 313 313 306 298 287 280 270 260 251 239 233 227 221 213 209 185 186 203 213 225 240
288 283 273 252 237 225 211 200 203 222 227 228 235 229 225 234 256 272 286 296 300 301 304 309 305 299 293 287 277 266 255 242 233 228 219 215 214 201 188 182 177 190 203
353 346 340 326 310 292 267 232 231 243 243 238 235 234 236 240 253 269 276 288 295 304 309 312 309 304 298 291 282 266 258 246 235 227 217 214 212 205 200 188 180 174 176
22 20 22 22 20 14 7 2 334 297 285 270 255 247 243 244 250 263 283 296 304 309 316 319 317 313 308 300 286 272 260 248 238 224 216 214 209 201 194 192 191 182 159
28 26 25 24 25 24 21 11 357 340 322 299 279 264 253 246 249 261 276 291 301 313 322 325 325 325 322 317 301 281 262 246 236 220 211 209 195 185 179 171 161 152 134
29 27 24 23 22 18 10 4 355 342 326 310 289 270 259 250 249 257 269 282 298 313 323 329 334 339 340 340 336 324 299 241 219 200 181 172 161 148 142 137 132 128 121
23 22 22 19 13 6 0 356 351 339 329 321 304 282 264 251 247 250 259 269 287 312 330 340 345 347 353 2 12 25 44 60 74 101 126 129 127 118 113 111 112 111 109
16 13 9 3 358 353 348 346 343 340 334 328 316 296 274 254 246 242 245 252 263 291 324 341 345 352 5 16 28 46 58 64 63 64 75 90 104 112 113 110 111 112 108
3 360 353 346 343 342 339 338 335 335 335 330 324 309 293 268 249 240 237 240 245 256 288 332 347 356 10 29 40 58 69 71 70 64 64 77 95 99 104 115 115 113 110
347 341 337 333 331 329 327 326 324 325 329 330 325 320 310 286 259 245 235 231 234 239 244 268 331 5 22 46 60 73 80 81 82 80 76 80 86 90 90 94 97 106 113
330 325 321 317 313 310 308 306 305 308 315 321 324 327 319 302 279 257 239 230 224 218 215 212 190 159 104 98 87 78 81 80 83 89 91 94 95 97 99 89 83 81 86
311 308 306 304 300 297 294 291 294 297 301 307 313 319 320 308 293 268 246 235 222 211 208 200 188 172 172 152 129 103 87 81 73 79 97 107 103 107 109 103 93 84 76
294 294 292 291 289 289 288 289 290 290 292 294 298 305 313 313 302 280 261 240 221 213 205 195 184 176 175 165 147 127 107 95 81 76 93 111 109 115 114 110 104 94 82
299 296 294 290 287 285 283 280 283 284 282 282 284 288 294 304 305 290 274 249 223 215 204 194 188 180 175 169 155 138 129 116 106 89 83 100 117 122 122 122 122 116 112
299 299 299 295 288 287 284 278 279 277 275 275 277 280 282 287 295 297 288 263 229 211 202 192 187 184 177 173 165 156 146 142 134 125 111 104 116 116 117 120 123 131 127
294 294 294 293 292 289 285 282 280 279 280 279 277 277 277 283 298 301 297 276 238 212 200 190 182 185 179 174 178 172 158 150 142 141 133 122 118 112 110 110 118 119 115
287 285 283 286 286 282 276 275 278 280 281 279 275 275 275 273 276 286 294 289 253 218 201 190 186 185 182 181 180 176 162 150 135 140 139 128 118 107 104 111 116 115 114
282 281 280 281 282 278 274 270 274 277 276 275 274 274 274 275 273 275 279 283 268 228 205 191 187 182 179 178 173 171 158 141 127 127 121 112 105 99 100 100 100 105 114
282 278 277 278 278 276 272 271 272 271 272 272 272 272 270 270 271 272 271 271 266 240 215 197 187 181 184 186 173 166 165 159 149 137 125 122 124 120 115 108 106 110 115
285 283 280 279 279 276 272 269 267 264 264 268 269 269 270 270 270 274 282 267 263 251 227 207 188 187 182 169 169 167 161 152 148 142 149 151 153 153 150 143 133 131 132
Height
1498 1501 1504 1506 1509 1511 1512 1514 1514 1515 1515 1514 1514 1513 1512 1511 1510 1508 1506 1504 1502 1500 1498 1497 1496 1495 1495 1494 1493 1493 1494 1494 1495 1496 1495 1495 1496 1496 1497 1497 1497 1496 1496
1499 1501 1504 1506 1508 1510 1511 1512 1513 1513 1513 1513 1512 1511 1509 1508 1506 1504 1502 1499 1497 1495 1493 1491 1489 1488 1487 1487 1486 1486 1486 1486 1488 1488 1489 1488 1489 1488 1489 1489 1489 1489 1489
1500 1502 1504 1506 1507 1509 1510 1511 1512 1512 1512 1511 1510 1509 1507 1505 1502 1500 1497 1495 1492 1490 1487 1485 1483 1482 1480 1479 1479 1479 1479 1478 1479 1481 1482 1482 1480 1481 1481 1481 1482 1483 1482
1500 1502 1503 1505 1506 1508 1509 1510 1510 1510 1510 1509 1507 1506 1504 1501 1499 1496 1493 1490 1487 1484 1482 1479 1477 1476 1474 1473 1472 1472 1471 1471 1472 1473 1474 1475 1475 1477 1475 1476 1476 1477 1477
1500 1501 1502 1504 1505 1506 1507 1508 1508 1508 1508 1506 1505 1503 1500 1498 1495 1492 1489 1486 1483 1480 1477 1474 1471 1469 1467 1466 1465 1465 1464 1464 1465 1466 1467 1468 1469 1470 1471 1470 1471 1472 1472
1499 1500 1501 1503 1504 1504 1505 1506 1506 1506 1505 1503 1502 1499 1497 1494 1491 1488 1485 1481 1478 1474 1471 1468 1465 1463 1461 1459 1458 1458 1457 1458 1458 1459 1460 1461 1462 1463 1464 1465 1465 1467 1468
1498 1499 1500 1501 1502 1502 1503 1503 1503 1503 1502 1500 1498 1496 1493 1490 1487 1484 1480 1476 1473 1469 1466 1462 1460 1457 1454 1453 1451 1451 1450 1451 1451 1452 1453 1454 1456 1457 1459 1460 1461 1463 1464
1497 1497 1498 1499 1500 1500 1500 1501 1501 1500 1499 1497 1495 1493 1490 1487 1483 1480 1477 1473 1469 1465 1461 1458 1454 1451 1449 1446 1445 1444 1443 1444 1444 1445 1447 1448 1449 1451 1453 1455 1457 1459 1461
1496 1496 1496 1496 1497 1497 1498 1498 1498 1497 1496 1494 1492 1489 1486 1483 1480 1477 1473 1470 1466 1462 1458 1454 1450 1447 1444 1441 1439 1438 1437 1438 1438 1439 1441 1442 1444 1446 1448 1450 1453 1455 1457
1495 1494 1494 1494 1494 1494 1495 1495 1495 1494 1493 1491 1488 1486 1483 1480 1477 1473 1470 1466 1463 1459 1455 1451 1447 1443 1440 1437 1434 1433 1432 1432 1433 1434 1435 1437 1439 1441 1444 1446 1448 1451 1453
1496 1495 1494 1494 1493 1493 1493 1492 1492 1490 1489 1487 1485 1482 1480 1476 1473 1470 1467 1463 1459 1456 1452 1448 1444 1440 1436 1433 1430 1428 1427 1428 1428 1429 1431 1433 1435 1438 1440 1443 1445 1447 1450
1499 1497 1495 1494 1493 1492 1491 1490 1489 1487 1485 1482 1480 1478 1475 1473 1470 1467 1464 1460 1457 1453 1450 1446 1442 1438 1435 1431 1428 1425 1424 1424 1424 1425 1427 1429 1432 1434 1437 1440 1442 1445 1447
1500 1498 1496 1494 1493 1491 1490 1488 1485 1483 1480 1477 1474 1472 1470 1468 1466 1463 1461 1458 1454 1451 1448 1444 1441 1437 1434 1431 1427 1425 1423 1423 1423 1424 1425 1427 1430 1432 1435 1438 1440 1444 1447
1502 1499 1497 1495 1493 1490 1488 1485 1482 1479 1475 1472 1469 1466 1464 1462 1461 1459 1457 1455 1452 1449 1446 1443 1440 1437 1434 1431 1429 1426 1425 1424 1424 1424 1425 1427 1429 1432 1434 1437 1441 1444 1447
1502 1499 1496 1494 1490 1487 1484 1481 1478 1474 1471 1467 1463 1460 1457 1455 1454 1453 1453 1451 1449 1447 1445 1442 1440 1438 1435 1433 1431 1429 1427 1426 1427 1427 1428 1429 1431 1434 1437 1440 1443 1446 1450
1501 1498 1495 1492 1489 1485 1482 1478 1474 1471 1467 1463 1459 1455 1451 1449 1448 1447 1447 1447 1445 1444 1443 1441 1440 1438 1437 1435 1433 1432 1431 1430 1430 1430 1432 1433 1435 1438 1441 1444 1447 1450 1453
1500 1496 1493 1490 1486 1483 1479 1475 1472 1467 1464 1459 1455 1451 1446 1443 1442 1441 1441 1441 1441 1441 1440 1439 1439 1438 1437 1436 1435 1435 1434 1434 1434 1435 1436 1437 1440 1442 1444 1448 1450 1453 1456
1497 1494 1490 1486 1482 1479 1475 1471 1467 1464 1460 1455 1451 1447 1442 1439 1436 1435 1435 1435 1436 1436 1437 1436 1437 1437 1437 1437 1437 1437 1437 1438 1438 1439 1441 1442 1444 1447 1448 1451 1453 1455 1458
1493 1489 1485 1481 1477 1473 1469 1465 1461 1458 1454 1450 1447 1442 1438 1434 1431 1429 1428 1428 1429 1430 1432 1433 1434 1434 1435 1436 1437 1438 1439 1440 1441 1443 1444 1446 1448 1450 1452 1453 1455 1457 1460
1487 1482 1478 1473 1469 1466 1462 1458 1454 1451 1447 1444 1441 1437 1433 1429 1426 1423 1421 1421 1421 1423 1426 1428 1429 1431 1433 1435 1437 1438 1440 1441 1442 1444 1446 1448 1450 1452 1454 1455 1457 1458 1461
1481 1476 1471 1466 1462 1458 1454 1450 1446 1443 1440 1437 1434 1430 1427 1424 1420 1416 1414 1412 1412 1414 1418 1422 1424 1427 1430 1432 1435 1438 1439 1441 1443 1445 1447 1449 1451 1452 1454 1456 1458 1460 1462
1474 1469 1464 1459 1455 1451 1447 1441 1438 1435 1432 1428 1425 1423 1420 1417 1413 1410 1406 1404 1403 1405 1409 1414 1418 1422 1426 1429 1433 1436 1439 1441 1443 1445 1447 1449 1451 1453 1455 1457 1459 1460 1463
1466 1461 1456 1450 1446 1443 1439 1433 1429 1426 1423 1420 1417 1414 1412 1409 1407 1403 1400 1396 1395 1394 1399 1404 1410 1415 1421 1425 1430 1434 1438 1441 1443 1445 1447 1449 1452 1454 1456 1458 1460 1461 1463
1457 1452 1446 1441 1436 1432 1429 1425 1420 1417 1413 1410 1407 1405 1403 1400 1398 1396 1393 1389 1386 1386 1390 1395 1401 1408 1414 1420 1425 1430 1435 1438 1442 1444 1447 1450 1452 1455 1457 1459 1461 1463 1464
1446 1441 1436 1430 1425 1421 1417 1414 1411 1407 1403 1400 1398 1396 1394 1392 1389 1387 1384 1381 1379 1378 1381 1386 1393 1399 1406 1413 1419 1425 1430 1435 1439 1443 1446 1449 1452 1455 1457 1459 1461 1463 1465
1435 1429 1424 1418 1413 1409 1405 1402 1400 1397 1393 1390 1388 1386 1385 1383 1381 1378 1375 1373 1371 1370 1373 1379 1387 1393 1401 1409 1416 1422 1428 1433 1437 1441 1444 1448 1451 1454 1457 1459 1461 1463 1465